カタログに戻る

COSMOS 252 DEB *

運用中LEO
NORAD 3686·DEBRIS·🇷🇺 Russia

打ち上げ Nov 1, 1968 から Baikonur Cosmodrome

Loading…

次のパス (今後24時間)

TLE

最新Source: Space-Track

元期: Sep 14, 2026, 12:38 UTC

1 03686U 68097AD  26257.52643919  .00000606  00000-0  64209-3 0  9990
2 03686  62.2606 232.7978 0624682 191.3443 167.2912 13.18198727708547

AllMySatでCOSMOS 252 DEB *をリアルタイム追跡

Download on the App Store